DIWATA 2B

导读 | 豆包AI

DIWATA-2B是菲律宾(PH)自主研发的微型观测卫星,于2018年10月29日发射入轨,是菲律宾在航天领域探索本土卫星技术的重要实践。作为该国推进空间技术发展的成果,卫星主要服务于国土观测、灾害监测与环境研究,帮助提升菲律宾对本土自然资源与气候灾害的感知能力,同时也推动了菲律宾航天人才培养与国际航天合作,标志着菲律宾在低成本微小卫星领域迈出了关键一步。

基本信息
目录编号:
43678
目录名称:
DIWATA 2B
国际标识:
2018-084H
轨道中心:
EARTH
卫星名称:
DIWATA 2B
卫星全名:
--
卫星状态:
在轨 (已飞行2683 天)
发射日期:
2018-10-29 UTC
国别 :
(PH)
星等 :
--
轨道信息
数据来源 国际轨道数据
星历时间: 2026-03-04T20:27:08+0800
7小时前
查看轨道信息
半长轴: 6945.251km
偏心率: 0.0011245
轨道倾角: 98.103°
近地点辐角 142.984°
升交点赤经 255.344°
平近点角 217.216°
近地点: 559.304km
远地点: 574.924km
周期: 96.005分钟
每日圈数: 14.999296
详细信息
使用方式:
暂无
2D轨道图
3D轨道图
轨道高度分析图
轨道倾角分析图
轨道综合分析图
查看轨道综合分析图